Preview of NWS' New Version of Forecast
This preview is not operational and should not be used for support decisions.
Latest weather observations around

Tuscaloosa Regional Airport (KTCL)

Using International System of Units (Switch to English Units)
Date/ Time (CST) Wind (kph) Vis. (km) Weather Sky Cond. Temp (°C) Rel. Humidity Wind Chill (°C) Heat Index (°C) Pressure Precip. (cm)
Air Dwpt 6 hour Altimeter (hPa) Sea level (hPa) 1 hr 3 hr 6 hr
Max Min
Jan 21 21:53 ENE 8 16.09 Clear CLR 3 -8     44% 1   1028.1 1028      
Jan 21 20:53 8 16.09 Clear CLR 4 -7     44% 2   1028.1 1028.2      
Jan 21 19:53 E 8 16.09 Clear CLR 4 -6     48% 3   1028.1 1028      
Jan 21 18:53 E 8 16.09 Clear CLR 4 -6     46% 3   1027.8 1027.9      
Jan 21 17:53 ENE 9 16.09 Clear CLR 5 -6     46% 3   1028.5 1028.3      
Jan 21 16:53 ENE 9 16.09 Clear CLR 8 -6     37% 6   1028.8 1028.7      
Jan 21 15:53 5 16.09 Clear CLR 8 -6     35% 8   1029.1 1028.9      
Jan 21 14:53 NE 11 16.09 Clear CLR 9 -6     34% 7   1028.8 1028.9      
Jan 21 13:53 8 16.09 Clear CLR 7 -7     37% 6   1029.5 1029.5      
Jan 21 12:53 5 16.09 Clear CLR 7 -6     40% 6   1030.5 1030.6      
Jan 21 11:53 5 16.09 Clear CLR 5 -7     41% 4   1031.8 1031.9      
Jan 21 10:53 E 13 16.09 Clear CLR 3 -8     44% 0   1032.5 1032.5      
Jan 21 09:53 E 15 16.09 Clear CLR 2 -8     48% -2   1032.5 1032.3      
Jan 21 08:53 ENE 13 16.09 Clear CLR 0 -7     58% -4   1032.2 1032.1      
Jan 21 07:53 NNE 13 16.09 Clear CLR -1 -7     66% -5   1031.5 1031.4      
Jan 21 06:53 N 8 16.09 Clear CLR -3 -7     72% -6   1030.8 1030.7      
Jan 21 05:53 N 9 16.09 Clear CLR -3 -7     75% -6   1029.1 1029.1      
Jan 21 04:53 N 9 16.09 Clear CLR -3 -6     78% -6   1028.5 1028.3      
Jan 21 03:53 N 8 16.09 Clear CLR -3 -6     78% -6   1028.1 1028      
Jan 21 02:53 N 8 16.09 Clear CLR -2 -6     72% -5   1028.1 1027.9      
Jan 21 01:53 N 5 16.09 Clear CLR -2 -6     72% -4   1027.8 1027.7      
Jan 21 00:53 NNW 8 16.09 Clear CLR -1 -6     69% -4   1027.8 1027.7      
Jan 20 23:53 N 8 16.09 Clear CLR -1 -6     66% -3   1027.4 1027.4      
Jan 20 22:53 Calm 16.09 Clear CLR -1 -6     66%     1027.1 1026.9      
Jan 20 21:53 N 11 16.09 Clear CLR 0 -6     64% -4   1026.8 1026.9      
Jan 20 20:53 N 11 16.09 Clear CLR 1 -6     61% -3   1026.4 1026.2      
Jan 20 19:53 N 11 16.09 Clear CLR 2 -6     56% -2   1026.4 1026.5      
Jan 20 18:53 NW 9 16.09 Clear CLR 2 -6     56% -1   1026.1 1026.2      
Jan 20 17:53 NW 11 16.09 Clear CLR 3 -6     54% 0   1025.1 1025      
Jan 20 16:53 NNW 11 16.09 Clear CLR 4 -7     44% 2   1024.7 1024.5      
Jan 20 15:53 NNW 17 16.09 Clear CLR 5 -7     43% 2   1024.1 1024      
Jan 20 14:53 11 16.09 Clear CLR 4 -4     53% 2   1023.7 1023.6      
Jan 20 13:53 WNW 13 16.09 Mostly Cloudy BKN032 4 -4     57% 1   1024.1 1023.9      
Jan 20 13:39 NW 17 16.09 Mostly Cloudy BKN032 3 -4     59% -1   1023.7        
Jan 20 12:53 N 21 16.09 Cloudy OVC027 3 -4     59% -2   1023.7 1023.7      
Jan 20 11:53 NNW 17 16.09 Cloudy OVC026 2 -5     61% -3   1024.1 1024      
Jan 20 10:53 NW 24 16.09 Cloudy OVC023 1 -5     64% -4   1024.7 1024.8      
Jan 20 09:53 NNW 24 16.09 Cloudy OVC025 2 -4     64% -4   1024.4 1024.2      
Jan 20 08:53 NNW 17 16.09 Cloudy OVC024 1 -4     69% -3   1023.4 1023.2      
Jan 20 07:53 NW 21 16.09 Cloudy OVC025 1 -4     69% -4   1022 1021.9      
Jan 20 06:53 NNW 17 16.09 Cloudy OVC023 1 -4     69% -3   1020.7 1020.5      
Jan 20 05:53 NNW 18 16.09 Cloudy OVC022 2 -3     69% -3   1019.7 1019.7      
Jan 20 04:53 NW 18 16.09 Cloudy OVC022 2 -3     69% -3   1018.3 1018.1      
Jan 20 03:53 NW 18 16.09 Cloudy OVC025 2 -3     69% -3   1016.9 1016.7      
Jan 20 03:37 NW 17 16.09 Cloudy BKN028 OVC033 2 -4     64% -2   1016.6        
Jan 20 03:26 NNW 18 16.09 Cloudy OVC031 2 -4     64% -2   1016.6        
Jan 20 02:53 NW 24 16.09 Cloudy OVC027 2 -4     64% -3   1016.6 1016.3      
Jan 20 02:32 NW 15 16.09 Cloudy OVC027 2 -4     64% -2   1016.3        
Jan 20 02:18 NNW 21 16.09 Cloudy OVC030 2 -4     62% -3   1016.3        
Jan 20 01:53 NW 22 16.09 Cloudy OVC027 2 -4     64% -3   1015.9 1015.9      
Jan 20 00:53 NW 32 16.09 Cloudy and Windy OVC026 3 -3     67% -3   1014.6 1014.4      
Jan 20 00:06 NW 30 16.09 Cloudy BKN028 OVC033 3 -3     64% -2   1013.9        
Jan 19 23:53 NNW 22 16.09 Cloudy BKN030 OVC036 3 -3     64% -1   1013.9 1013.6      
Jan 19 23:28 NNW 22 16.09 Cloudy BKN030 OVC039 3 -3     64% -1   1013.2        
Jan 19 23:02 NW 26 16.09 Cloudy BKN029 OVC040 4 -2     64% -1   1012.9        
Jan 19 22:53 NW 24 16.09 Cloudy SCT029 OVC040 4 -2     67% -1   1012.9 1012.6      
Jan 19 21:53 WNW 30 16.09 Cloudy FEW023 OVC038 5 1     73% 0   1011.2 1011      
Jan 19 21:31 WNW 30 16.09 Cloudy SCT023 OVC038 5 1     73% 0   1010.5        
Jan 19 20:53 NW 22 16.09 Cloudy BKN022 OVC031 6 2     76% 2   1009.8 1009.5      
Jan 19 19:53 NW 30 16.09 Cloudy BKN017 OVC022 8 5     80% 4   1008.1 1008.1      
Jan 19 18:53 NW 28 16.09 Cloudy OVC018 11 6     74%     1006.1 1006.1      
Jan 19 17:53 WNW 22 16.09 Mostly Cloudy FEW014 BKN024 BKN028 12 8     77%     1004.1 1004 0   0
Jan 19 17:21 W 28 16.09 Mostly Cloudy SCT019 BKN027 BKN043 14 11     81%     1003.1   0    
Jan 19 17:06 W 22 16.09 Light Rain FEW018 BKN042 OVC065 14 11     78%     1002.4   0    
Jan 19 16:53 W 22 3.22 Heavy Rain FEW016 BKN040 16 13     83%     1002 1001.8 0    
Jan 19 15:53 SSW 18 16.09 Mostly Clear FEW020 FEW025 17 13     78%     1001.4 1001      
Jan 19 15:48 SSW 21 16.09 Partly Cloudy FEW020 SCT025 17 13     77%     1001.4        
Jan 19 14:53 SSW 15 16.09 Mostly Cloudy SCT015 BKN025 BKN033 16 14     87%     1001 1000.8 0 0  
Jan 19 14:48 SSW 13 16.09 Mostly Cloudy FEW012 BKN020 BKN031 16 14     88%     1001.4   0    
Jan 19 13:53 SSW 15 16.09 Light Rain FEW070 OVC100 15 13     90%     1001 1000.6 0    
Jan 19 13:28 S 13 6.44 Light Rain and Fog/Mist FEW013 BKN070 OVC085 15 13     90%     1001   0    
Jan 19 13:05 9 4.02 Rain and Fog/Mist FEW009 SCT017 OVC060 15 13     87%     1002   0    
Jan 19 12:53 WSW 18 11.27 Light Rain OVC060 16 13     86%     1002.7 1002.3 0    
Jan 19 11:53 SW 18 8.05 Light Rain and Fog/Mist FEW010 BKN034 OVC070 17 15     90%     1003.7 1003.3 1   2
Jan 19 11:51 SW 18 4.02 Light Rain and Fog/Mist FEW010 BKN029 OVC070 17 15     88%     1003.7   1    
Jan 19 11:50 SW 21 2.41 Light Rain and Fog/Mist FEW010 BKN026 OVC070 17 15     88%     1003.7   1    
Jan 19 11:42 W 26 0.4 Heavy Rain and Fog BKN014 BKN021 OVC031 17 16     90%     1003.7   1    
Jan 19 11:40 WSW 32 0.8 Heavy Rain and Fog BKN014 BKN023 OVC029 18 16     90%     1003.7   1    
Jan 19 11:36 SSW 18 2.41 Heavy Rain and Fog/Mist SCT018 BKN024 OVC031 18 16     87%     1003.4   0    
Jan 19 10:53 S 24 6.44 Rain and Fog/Mist SCT008 BKN020 OVC048 18 16     90%     1004.4 1004 0    
Jan 19 10:45 WSW 17 6.44 Light Rain and Fog/Mist FEW008 BKN016 OVC037 18 16     90%     1004.8   0    
Jan 19 10:37 SSE 17 4.83 Light Rain and Fog/Mist FEW021 BKN035 OVC045 18 16     90%     1003.1   0    
Jan 19 10:25 S 18 2.41 Rain and Fog/Mist FEW022 BKN045 OVC060 18 16     90%     1005.4   0    
Jan 19 10:11 S 18 4.02 Rain and Fog/Mist FEW017 BKN050 OVC090 18 16     90%     1005.8   0    
Jan 19 09:53 S 21 4.83 Rain and Fog/Mist SCT021 BKN055 OVC090 18 16     90%     1006.1 1005.9 0    
Jan 19 09:23 S 22 8.05 Light Rain and Fog/Mist OVC016 18 16     87%     1006.8   0    
Jan 19 09:03 S 26 12.87 Light Rain OVC014 18 16     87%     1006.8   0    
Jan 19 08:53 S 21 8.05 Light Rain and Fog/Mist OVC015 17 16     90%     1006.8 1006.4 0 1  
Jan 19 08:14 S 17 14.48 Light Rain BKN014 OVC018 17 15     87%     1007.1   0    
Jan 19 07:53 S 21 16.09 Light Rain SCT010 BKN016 OVC034 17 15     90%     1007.5 1007.2 0    
Jan 19 07:44 S 17 14.48 Cloudy SCT010 BKN020 OVC034 17 15     90%     1007.5   0    
Jan 19 07:28 S 18 11.27 Light Rain SCT010 BKN014 OVC021 17 15     90%     1007.8   0    
Jan 19 07:16 S 17 6.44 Light Rain and Fog/Mist SCT009 BKN015 OVC023 17 15     90%     1007.8   0    
Jan 19 07:04 S 17 3.22 Rain and Fog/Mist SCT009 BKN015 OVC021 16 15     93%     1008.1   0    
Jan 19 07:00 S 13 2.82 Heavy Rain and Fog/Mist FEW007 BKN011 OVC021 16 15     93%     1008.1   0    
Jan 19 06:53 S 17 3.22 Heavy Rain and Fog/Mist BKN009 BKN013 OVC023 17 15     90%     1008.5 1008.2 0    
Jan 19 05:53 S 24 14.48 Cloudy OVC008 16 14     90%     1008.1 1008     0
Jan 19 04:53 S 22 12.87 Cloudy OVC006 16 14     90%     1008.8 1008.5      
Jan 19 03:53 S 17 12.87 Cloudy OVC007 16 14     90%     1009.5 1009.4 0    
Jan 19 03:01 S 22 8.05 Rain and Fog/Mist OVC009 15 13     90%     1010.5   0    
Jan 19 02:53 SSE 22 14.48 Thunderstorms OVC010 15 13     87%     1010.5 1010.1 0 0  
Jan 19 02:45 S 15 12.87 Thunderstorms and Rain OVC010 14 13     90%     1010.5   0    
Jan 19 02:22 SE 15 14.48 Cloudy OVC014 14 13     90%     1010.8   0    
Jan 19 01:53 SE 15 6.44 Light Rain and Fog/Mist SCT017 BKN024 OVC046 14 12     87%     1011.5 1011.3 0    
Jan 19 01:32 SE 13 12.87 Light Rain BKN026 BKN033 OVC046 14 12     87%     1012.2   0    
Jan 19 00:53 8 12.87 Partly Cloudy FEW036 SCT080 13 11     87%     1013.2 1012.9      
Jan 18 23:53 SE 9 14.48 Mostly Cloudy BKN030 BKN042 13 11     84%     1014.2 1014.1      
Jan 18 23:27 8 14.48 Mostly Cloudy SCT029 BKN040 13 11     86%     1014.9        
Jan 18 22:53 Calm 14.48 Mostly Cloudy BKN029 13 11     86%     1014.9 1014.8      
May 14 13:53 NE 9 16.09 Clear CLR 34 16     34%   35 1015.9 1015.6      
May 13 19:53 Calm 16.09 Clear CLR 27 21     69%   28 1016.3 1016.1      
May 12 07:48 Calm 3.22 Clear   21 17     78%     1021.7        
May 11 23:53 Calm 14.48 Clear CLR 19 18     96%     1018.6 1018.3      
Jun 11 13:53 11 16.09 Mostly Clear FEW050 32 19     47%   34 1019.3 1018.9      
Jun 11 12:53 SE 11 16.09 Mostly Clear FEW048 31 19     50%   33 1019.7 1019.4      
Jun 10 23:53 NNE 5 16.09 Clear CLR 22 19     84%   22 1018.3 1017.8 0    
Jun 10 11:53 5 16.09 Partly Cloudy SCT080 30 16     42%   30 1018.3 1017.9      
Jun 10 09:53 9 16.09 Clear CLR 27 17     53%   28 1018.3 1018.1      
Jun 09 15:53 SW 11 16.09 Clear CLR 28 14     44%   28 1013.9 1013.7      
Jun 09 01:53 Calm 12.87 Clear CLR 16 15     93%     1013.2 1012.9      
Jun 08 10:53 N 13 16.09 Clear CLR 24 15     56%   24 1013.9 1013.5      
Jun 06 03:53 NE 5 16.09 Cloudy OVC007 22 21     93%   23 1008.1 1007.9      
Jun 05 21:43 NE 8 16.09 Cloudy BKN009 OVC023 22 22     97%   23 1009.2   0